Location: Zagreb
(45.8000°N, 16.0000°E)
Time: 12:10:30
(UTC+01:00)

Vanguard 1 Rocket - Pass Details

Date: 11 October 2020
Orbit: 656 x 4221 km, 34.3° (Epoch: 28 October)

Event Time Altitude Azimuth Distance (km) Brightness Sun altitude
Rises 22:09:35 0° 272° (W) 5,822 12.1 -39.5°
Reaches altitude 10° 22:13:57 10° 260° (W) 5,321 11.6 -40.1°
Maximum altitude 22:26:10 25° 214° (SSW) 5,306 11.1 -41.7°
Enters shadow 22:32:50 21° 192° (SSW) 5,966 11.2 -42.6°
Drops below altitude 10° 22:42:57 10° 170° (S) 7,323 - -43.8°
Sets 22:50:55 0° 159° (SSE) 8,454 - -44.7°
